Location: Calberlah
(52.4230°N, 10.6240°E)
Time: 06:41:52
(UTC+00:00)

Cosmos 405 Rocket - Pass Details

Date: 19 May 2025
Orbit: 414 x 448 km, 81.2° (Epoch: 14 June)

Event Time Altitude Azimuth Distance (km) Brightness Sun altitude
Rises 21:34:37 0° 350° (N) 2,467 7.8 -14.4°
Reaches altitude 10° 21:36:45 10° 355° (N) 1,584 6.4 -14.6°
Maximum altitude 21:40:09 55° 74° (ENE) 539 2.7 -14.8°
Enters shadow 21:41:33 30° 139° (SE) 813 3.1 -14.9°
